Grand Forks Air Force Base, ND

3:43 AM CST on February 06, 2016 (GMT -0600)
Grand Forks Air Force Base

Weather History for KRDR - January, 2013

Change the Weather History Date:

Wednesday, January 23, 2013

  Actual Average Record
Temperature  
Mean Temperature -9 °F -  
Max Temperature 1 °F 13 °F 44 °F (2015)
Min Temperature -19 °F 0 °F -22 °F (2003)
Degree Days  
Heating Degree Days 74    
Moisture  
Dew Point -16 °F    
Average Humidity 66    
Maximum Humidity 81    
Minimum Humidity 54    
Precipitation  
Precipitation 0.00 in - - ()
Sea Level Pressure  
Sea Level Pressure 30.45 in    
Wind  
Wind Speed 12 mph (North)    
Max Wind Speed 24 mph    
Max Gust Speed 30 mph    
Visibility 10 miles    
Events      
Averages and records for this station are not official NWS values.
T = Trace of Precipitation, MM = Missing Value Source: NWS Daily Summary

Daily Weather History Graph

Daily Weather History Graph

Search for Another Location

Airport or City:

Trip Planner

Search our weather history database for the weather conditions in past years. The results will help you decide how hot, cold, wet, or windy it might be!

Date:

Astronomy

Jan. 23, 2013 Rise Set
Actual Time 8:07 AM CST 5:16 PM CST
Civil Twilight 7:33 AM CST 5:50 PM CST
Nautical Twilight 6:55 AM CST 6:28 PM CST
Astronomical Twilight 6:18 AM CST 7:05 PM CST
Moon 2:24 PM CST (1/23) 5:23 AM CST (1/23)
Length of Visible Light 10h 17m
Length of Day
9h 08m
Waxing Gibbous, 89% of the Moon is Illuminated
Jan 23
Waxing Gibbous
Jan 26
Full
Feb 3
Last Quarter
Feb 10
New
Feb 17
First Quarter

Hourly Weather History & Observations

Time (CST) Temp. Windchill Dew Point Humidity Pressure Visibility Wind Dir Wind Speed Gust Speed Precip Events Conditions
12:05 AM 1.4 °F -8.3 °F -4.0 °F 78% 30.16 in 10.0 mi WSW 4.6 mph - N/A   Overcast
12:32 AM -0.4 °F - -5.8 °F 78% 30.16 in 10.0 mi Calm Calm - N/A   Scattered Clouds
12:55 AM -1.8 °F -9.9 °F -6.3 °F 81% 30.16 in 10.0 mi WNW 3.5 mph - N/A   Clear
12:59 AM -2.2 °F -12.5 °F -7.6 °F 78% 30.16 in 10.0 mi West 4.6 mph - N/A   Partly Cloudy
1:55 AM -0.4 °F -14.7 °F -4.9 °F 81% 30.16 in 10.0 mi WNW 8.1 mph - N/A   Scattered Clouds
2:55 AM 1.6 °F -14.2 °F -4.4 °F 76% 30.17 in 10.0 mi NW 10.4 mph - N/A   Clear
3:55 AM -0.0 °F -17.1 °F -6.3 °F 75% 30.19 in 10.0 mi NNW 11.5 mph - N/A   Clear
4:55 AM -1.7 °F -18.3 °F -8.3 °F 73% 30.21 in 10.0 mi NNW 10.4 mph - N/A   Clear
5:55 AM -2.7 °F -20.5 °F -9.9 °F 71% 30.25 in 10.0 mi NNW 11.5 mph - N/A   Clear
6:55 AM -4.2 °F -22.3 °F -11.6 °F 71% 30.29 in 10.0 mi North 11.5 mph - N/A   Clear
7:22 AM -4.0 °F -24.5 °F -11.2 °F 71% 30.30 in 10.0 mi North 15.0 mph - N/A   Partly Cloudy
7:32 AM -4.0 °F -24.5 °F -11.2 °F 71% 30.31 in 10.0 mi North 15.0 mph - N/A   Mostly Cloudy
7:35 AM -4.0 °F -23.7 °F -11.2 °F 71% 30.31 in 10.0 mi North 13.8 mph - N/A   Mostly Cloudy
7:55 AM -4.7 °F -28.0 °F -11.9 °F 71% 30.32 in 10.0 mi North 19.6 mph 24.2 mph N/A   Overcast
7:58 AM -5.8 °F -28.2 °F -13.0 °F 71% 30.33 in 10.0 mi North 17.3 mph 24.2 mph N/A   Overcast
8:17 AM -5.8 °F -26.8 °F -13.0 °F 71% 30.34 in 10.0 mi North 15.0 mph - N/A   Scattered Clouds
8:55 AM -6.2 °F -23.9 °F -13.9 °F 69% 30.37 in 10.0 mi North 10.4 mph - N/A   Mostly Cloudy
9:55 AM -5.1 °F -26.6 °F -13.4 °F 67% 30.41 in 10.0 mi North 16.1 mph - N/A   Clear
10:15 AM -4.0 °F -27.0 °F -13.0 °F 65% 30.43 in 10.0 mi North 19.6 mph 23.0 mph N/A   Scattered Clouds
10:18 AM -5.8 °F -30.5 °F -13.0 °F 71% 30.44 in 10.0 mi North 21.9 mph - N/A   Mostly Cloudy
10:35 AM -5.8 °F -30.5 °F -14.8 °F 65% 30.45 in 10.0 mi North 21.9 mph 26.5 mph N/A   Overcast
10:39 AM -5.8 °F -31.0 °F -14.8 °F 65% 30.45 in 10.0 mi North 23.0 mph 26.5 mph N/A   Overcast
10:45 AM -5.8 °F -28.2 °F -14.8 °F 65% 30.45 in 10.0 mi North 17.3 mph - N/A   Overcast
10:55 AM -5.3 °F -30.3 °F -15.2 °F 62% 30.46 in 10.0 mi North 23.0 mph 28.8 mph N/A   Overcast
11:02 AM -5.8 °F -31.5 °F -16.6 °F 60% 30.47 in 10.0 mi North 24.2 mph 29.9 mph N/A   Overcast
11:50 AM -5.8 °F -28.8 °F -16.6 °F 60% 30.49 in 10.0 mi North 18.4 mph 25.3 mph N/A   Overcast
11:55 AM -6.2 °F -29.2 °F -15.5 °F 64% 30.48 in 10.0 mi North 18.4 mph 25.3 mph N/A   Overcast
12:17 PM -7.6 °F -32.3 °F -14.8 °F 71% 30.50 in 9.0 mi NNE 20.7 mph 26.5 mph N/A   Overcast
12:18 PM -7.6 °F -30.5 °F -14.8 °F 71% 30.50 in 9.0 mi NNE 17.3 mph 26.5 mph N/A   Overcast
12:55 PM -6.7 °F -31.7 °F -15.5 °F 66% 30.50 in 10.0 mi North 21.9 mph 25.3 mph N/A   Overcast
1:01 PM -5.8 °F -31.0 °F -16.6 °F 60% 30.51 in 10.0 mi North 23.0 mph 29.9 mph N/A   Overcast
1:04 PM -5.8 °F -30.5 °F -16.6 °F 60% 30.51 in 10.0 mi North 21.9 mph 29.9 mph N/A   Overcast
1:08 PM -7.6 °F -32.9 °F -16.6 °F 65% 30.51 in 10.0 mi North 21.9 mph 29.9 mph N/A   Overcast
1:22 PM -7.6 °F -32.3 °F -16.6 °F 65% 30.52 in 10.0 mi NNE 20.7 mph 28.8 mph N/A   Overcast
1:55 PM -7.6 °F -32.3 °F -17.3 °F 63% 30.53 in 10.0 mi North 20.7 mph - N/A   Overcast
2:25 PM -7.6 °F -30.5 °F -16.6 °F 65% 30.53 in 10.0 mi North 17.3 mph 23.0 mph N/A   Overcast
2:27 PM -7.6 °F -31.1 °F -16.6 °F 65% 30.54 in 10.0 mi NNE 18.4 mph 23.0 mph N/A   Overcast
2:32 PM -7.6 °F -31.1 °F -16.6 °F 65% 30.54 in 10.0 mi NNE 18.4 mph - N/A   Overcast
2:35 PM -7.6 °F -31.7 °F -16.6 °F 65% 30.54 in 10.0 mi NNE 19.6 mph 23.0 mph N/A   Overcast
2:55 PM -8.1 °F -32.4 °F -19.8 °F 57% 30.55 in 10.0 mi North 19.6 mph - N/A   Mostly Cloudy
2:56 PM -7.6 °F -32.3 °F -20.2 °F 54% 30.56 in 10.0 mi North 20.7 mph - N/A   Scattered Clouds
2:58 PM -7.6 °F -29.8 °F -20.2 °F 54% 30.56 in 10.0 mi NNE 16.1 mph - N/A   Mostly Cloudy
3:04 PM -7.6 °F -31.7 °F -20.2 °F 54% 30.56 in 10.0 mi North 19.6 mph - N/A   Scattered Clouds
3:07 PM -7.6 °F -31.1 °F -20.2 °F 54% 30.56 in 10.0 mi North 18.4 mph - N/A   Mostly Cloudy
3:10 PM -9.4 °F -32.8 °F -20.2 °F 59% 30.57 in 10.0 mi North 17.3 mph - N/A   Scattered Clouds
3:13 PM -7.6 °F -29.1 °F -20.2 °F 54% 30.57 in 10.0 mi North 15.0 mph - N/A   Mostly Cloudy
3:54 PM -11.2 °F -35.8 °F -22.0 °F 59% 30.59 in 10.0 mi NNE 18.4 mph - N/A   Scattered Clouds
3:55 PM -10.3 °F -34.0 °F -21.5 °F 58% 30.59 in 10.0 mi NNE 17.3 mph - N/A   Mostly Cloudy
4:55 PM -12.6 °F -31.9 °F -23.6 °F 58% 30.63 in 10.0 mi North 10.4 mph - N/A   Scattered Clouds
5:55 PM -14.8 °F -33.5 °F -24.5 °F 62% 30.65 in 10.0 mi North 9.2 mph - N/A   Clear
6:55 PM -16.1 °F -33.7 °F -25.6 °F 62% 30.65 in 10.0 mi North 8.1 mph - N/A   Clear
7:55 PM -18.0 °F -34.7 °F -26.5 °F 65% 30.67 in 10.0 mi North 6.9 mph - N/A   Clear
8:55 PM -19.7 °F -36.6 °F -27.4 °F 68% 30.66 in 10.0 mi North 6.9 mph - N/A   Clear
9:55 PM -18.8 °F -31.8 °F -26.3 °F 68% 30.68 in 10.0 mi North 4.6 mph - N/A   Clear
10:55 PM -17.7 °F -28.0 °F -25.2 °F 68% 30.68 in 10.0 mi NNE 3.5 mph - N/A   Clear
11:55 PM -17.5 °F - -24.7 °F 70% 30.68 in 10.0 mi Calm Calm - N/A   Clear